カタログに戻る

FENGYUN 1C DEB

運用中PO
NORAD 35174·DEBRIS·🇨🇳 China

打ち上げ May 10, 1999 から Taiyuan Satellite Launch Center

Loading…

次のパス (今後24時間)

TLE

最新Source: Space-Track

元期: Sep 14, 2026, 07:25 UTC

1 35174U 99025DNE 26257.30962041  .00031670  00000-0  12879-2 0  9998
2 35174  98.9595 283.0090 0101705 355.6191   4.4138 15.19771065943236

AllMySatでFENGYUN 1C DEBをリアルタイム追跡

Download on the App Store